| time (UTC) | temp F | wind direction | speed knots | gust knots | rain 1hr in | rain 24hr in | rain mn in | humidity % | barometer mb |
| 20260509034848 | 101 | 109 | 0.0 | 0.0 | 0.00 | 0.00 | 0.00 | 100 | 1009.3 |
| 20260509034843 | 101 | 109 | 0.0 | 0.0 | 0.00 | 0.00 | 0.00 | 100 | 1009.3 |
| 20260509033837 | 100 | 109 | 0.0 | 0.0 | 0.00 | 0.00 | 0.00 | 100 | 1009.2 |
| 20260509033334 | 101 | 109 | 0.0 | 0.0 | 0.00 | 0.00 | 0.00 | 100 | 1009.2 |
| 20260509032817 | 101 | 109 | 0.0 | 0.0 | 0.00 | 0.00 | 0.00 | 100 | 1009.3 |
| 20260509032530 | 101 | 109 | 0.0 | 0.0 | 0.00 | 0.00 | 0.00 | 100 | 1009.4 |
| 20260509031749 | 101 | 109 | 0.0 | 0.0 | 0.00 | 0.00 | 0.00 | 100 | 1009.4 |
| 20260509031241 | 100 | 109 | 0.0 | 0.0 | 0.00 | 0.00 | 0.00 | 100 | 1009.3 |
| 20260509030739 | 101 | 109 | 0.0 | 0.0 | 0.00 | 0.00 | 0.00 | 100 | 1009.3 |
| 20260509030201 | 101 | 109 | 0.0 | 0.0 | 0.00 | 0.00 | 0.00 | 100 | 1009.3 |
| 20260509025655 | 101 | 109 | 0.0 | 0.0 | 0.00 | 0.00 | 0.00 | 100 | 1009.3 |
| 20260509025145 | 101 | 109 | 0.0 | 0.0 | 0.00 | 0.00 | 0.00 | 100 | 1009.2 |
| 20260509024645 | 101 | 109 | 0.0 | 0.0 | 0.00 | 0.00 | 0.00 | 100 | 1009.1 |
| 20260509024140 | 101 | 109 | 0.0 | 0.0 | 0.00 | 0.00 | 0.00 | 100 | 1009.0 |
| 20260509023910 | 101 | 109 | 0.0 | 0.0 | 0.00 | 0.00 | 0.00 | 100 | 1009.0 |
| 20260509023136 | 101 | 109 | 0.0 | 0.0 | 0.00 | 0.00 | 0.00 | 100 | 1008.9 |
| 20260509022904 | 101 | 109 | 0.0 | 0.0 | 0.00 | 0.00 | 0.00 | 100 | 1008.8 |
| 20260509022130 | 101 | 109 | 0.0 | 3.5 | 0.00 | 0.00 | 0.00 | 100 | 1008.8 |
| 20260509021625 | 102 | 109 | 0.0 | 5.2 | 0.00 | 0.00 | 0.00 | 100 | 1008.8 |
| 20260509021120 | 102 | 111 | 2.6 | 5.2 | 0.00 | 0.00 | 0.00 | 100 | 1008.6 |
| 20260509020614 | 102 | 142 | 0.0 | 0.0 | 0.00 | 0.00 | 0.00 | 100 | 1008.6 |
| 20260509020340 | 102 | 142 | 0.0 | 0.9 | 0.00 | 0.00 | 0.00 | 100 | 1008.5 |
| 20260509015603 | 102 | 142 | 0.0 | 4.3 | 0.00 | 0.00 | 0.00 | 100 | 1008.5 |
| 20260509015059 | 103 | 142 | 0.9 | 4.3 | 0.00 | 0.00 | 0.00 | 100 | 1008.4 |
| 20260509014555 | 102 | 129 | 0.9 | 4.3 | 0.00 | 0.00 | 0.00 | 100 | 1008.4 |
| 20260509014054 | 103 | 102 | 2.6 | 4.3 | 0.00 | 0.00 | 0.00 | 100 | 1008.3 |
| 20260509013552 | 102 | 130 | 0.0 | 5.2 | 0.00 | 0.00 | 0.00 | 100 | 1008.2 |
| 20260509013053 | 103 | 146 | 0.0 | 5.2 | 0.00 | 0.00 | 0.00 | 100 | 1008.2 |
| 20260509012552 | 103 | 156 | 2.6 | 6.1 | 0.00 | 0.00 | 0.00 | 100 | 1008.3 |
| 20260509012052 | 103 | 136 | 2.6 | 6.1 | 0.00 | 0.00 | 0.00 | 100 | 1008.3 |
| 20260509011552 | 103 | 156 | 0.0 | 0.0 | 0.00 | 0.00 | 0.00 | 100 | 1008.3 |
| 20260509011048 | 103 | 156 | 0.0 | 0.0 | 0.00 | 0.00 | 0.00 | 100 | 1008.3 |
| 20260509010537 | 103 | 156 | 0.0 | 1.7 | 0.00 | 0.00 | 0.00 | 100 | 1008.3 |
| 20260509010248 | 103 | 156 | 0.0 | 5.2 | 0.00 | 0.00 | 0.00 | 100 | 1008.3 |
| 20260509005511 | 103 | 136 | 0.0 | 5.2 | 0.00 | 0.00 | 0.00 | 100 | 1008.2 |
| 20260509005013 | 103 | 147 | 2.6 | 4.3 | 0.00 | 0.00 | 0.00 | 100 | 1008.2 |
| 20260509004502 | 103 | 122 | 0.0 | 3.5 | 0.00 | 0.00 | 0.00 | 100 | 1008.2 |
| 20260509003947 | 103 | 130 | 0.0 | 0.0 | 0.00 | 0.00 | 0.00 | 100 | 1008.2 |
| 20260509003442 | 104 | 130 | 0.0 | 0.0 | 0.00 | 0.00 | 0.00 | 100 | 1008.2 |
| 20260509002942 | 103 | 130 | 0.0 | 0.0 | 0.00 | 0.00 | 0.00 | 100 | 1008.2 |
| 20260509002431 | 103 | 130 | 0.0 | 0.0 | 0.00 | 0.00 | 0.00 | 100 | 1008.2 |
| 20260509002157 | 103 | 130 | 0.0 | 0.0 | 0.00 | 0.00 | 0.00 | 100 | 1008.3 |
| 20260509001422 | 104 | 130 | 0.0 | 0.0 | 0.00 | 0.00 | 0.00 | 100 | 1008.2 |
| 20260509000916 | 103 | 130 | 0.0 | 0.0 | 0.00 | 0.00 | 0.00 | 100 | 1008.2 |
| 20260509000410 | 103 | 130 | 0.0 | 4.3 | 0.00 | 0.00 | 0.00 | 100 | 1008.1 |
| 20260508235902 | 103 | 130 | 0.0 | 6.1 | 0.00 | 0.00 | 0.00 | 100 | 1008.2 |
| 20260508235351 | 103 | 119 | 0.0 | 3.5 | 0.00 | 0.00 | 0.00 | 100 | 1008.3 |
| 20260508235347 | 103 | 151 | 4.3 | 6.1 | 0.00 | 0.00 | 0.00 | 100 | 1008.2 |
| 20260508234341 | 103 | 119 | 0.0 | 3.5 | 0.00 | 0.00 | 0.00 | 100 | 1008.3 |
| 20260508233835 | 103 | 109 | 0.0 | 0.0 | 0.00 | 0.00 | 0.00 | 100 | 1008.2 |
| 20260508233329 | 103 | 109 | 0.0 | 0.0 | 0.00 | 0.00 | 0.00 | 100 | 1008.2 |
| 20260508232823 | 103 | 109 | 0.0 | 0.0 | 0.00 | 0.00 | 0.00 | 100 | 1008.2 |
| 20260508232319 | 103 | 109 | 0.0 | 0.0 | 0.00 | 0.00 | 0.00 | 100 | 1008.2 |
| 20260508231803 | 103 | 109 | 0.0 | 0.0 | 0.00 | 0.00 | 0.00 | 100 | 1008.2 |
| 20260508231302 | 103 | 109 | 0.0 | 0.0 | 0.00 | 0.00 | 0.00 | 100 | 1008.2 |
| 20260508230753 | 103 | 109 | 0.0 | 4.3 | 0.00 | 0.00 | 0.00 | 100 | 1008.2 |
| 20260508230249 | 103 | 109 | 0.0 | 5.2 | 0.00 | 0.00 | 0.00 | 100 | 1008.1 |
| 20260508225743 | 103 | 126 | 1.7 | 5.2 | 0.00 | 0.00 | 0.00 | 100 | 1008.1 |
| 20260508225245 | 103 | 102 | 0.0 | 5.2 | 0.00 | 0.00 | 0.00 | 100 | 1008.2 |
| 20260508224743 | 103 | 144 | 2.6 | 5.2 | 0.00 | 0.00 | 0.00 | 100 | 1008.2 |
| 20260508224243 | 103 | 144 | 0.0 | 5.2 | 0.00 | 0.00 | 0.00 | 100 | 1008.3 |
| 20260508223955 | 103 | 136 | 0.9 | 5.2 | 0.00 | 0.00 | 0.00 | 100 | 1008.2 |
| 20260508223224 | 104 | 122 | 2.6 | 7.8 | 0.00 | 0.00 | 0.00 | 100 | 1008.2 |
| 20260508222724 | 104 | 113 | 0.0 | 7.8 | 0.00 | 0.00 | 0.00 | 100 | 1008.3 |
| 20260508222456 | 104 | 87 | 0.0 | 5.2 | 0.00 | 0.00 | 0.00 | 100 | 1008.3 |
| 20260508221718 | 104 | 109 | 1.7 | 5.2 | 0.00 | 0.00 | 0.00 | 100 | 1008.2 |
| 20260508221218 | 104 | 158 | 2.6 | 4.3 | 0.00 | 0.00 | 0.00 | 100 | 1008.2 |
| 20260508220712 | 104 | 126 | 0.9 | 5.2 | 0.00 | 0.00 | 0.00 | 100 | 1008.2 |
| 20260508220213 | 104 | 126 | 0.0 | 7.0 | 0.00 | 0.00 | 0.00 | 100 | 1008.1 |
| 20260508215706 | 105 | 137 | 0.9 | 7.0 | 0.00 | 0.00 | 0.00 | 100 | 1008.2 |
| 20260508215206 | 105 | 122 | 1.7 | 5.2 | 0.00 | 0.00 | 0.00 | 100 | 1008.2 |
| 20260508214934 | 104 | 130 | 0.0 | 5.2 | 0.00 | 0.00 | 0.00 | 100 | 1008.3 |
| 20260508214203 | 104 | 130 | 2.6 | 5.2 | 0.00 | 0.00 | 0.00 | 100 | 1008.5 |
| 20260508213700 | 104 | 125 | 0.0 | 5.2 | 0.00 | 0.00 | 0.00 | 100 | 1008.5 |
| 20260508213159 | 104 | 132 | 2.6 | 5.2 | 0.00 | 0.00 | 0.00 | 100 | 1008.5 |
| 20260508212700 | 104 | 102 | 2.6 | 6.1 | 0.00 | 0.00 | 0.00 | 100 | 1008.5 |
| 20260508212159 | 104 | 105 | 0.9 | 6.1 | 0.00 | 0.00 | 0.00 | 100 | 1008.5 |
| 20260508211658 | 104 | 75 | 0.0 | 5.2 | 0.00 | 0.00 | 0.00 | 100 | 1008.6 |
| 20260508211154 | 104 | 120 | 0.0 | 4.3 | 0.00 | 0.00 | 0.00 | 100 | 1008.8 |
| 20260508210650 | 104 | 80 | 0.0 | 3.5 | 0.00 | 0.00 | 0.00 | 100 | 1008.9 |
| 20260508210143 | 104 | 80 | 0.0 | 5.2 | 0.00 | 0.00 | 0.00 | 100 | 1008.9 |
| 20260508205627 | 104 | 25 | 1.7 | 5.2 | 0.00 | 0.00 | 0.00 | 100 | 1008.9 |
| 20260508205123 | 103 | 156 | 0.9 | 5.2 | 0.00 | 0.00 | 0.00 | 100 | 1009.0 |
| 20260508204850 | 103 | 22 | 0.0 | 5.2 | 0.00 | 0.00 | 0.00 | 100 | 1009.1 |
| 20260508204113 | 103 | 130 | 0.0 | 7.0 | 0.00 | 0.00 | 0.00 | 100 | 1009.2 |
| 20260508203608 | 104 | 154 | 0.9 | 7.0 | 0.00 | 0.00 | 0.00 | 100 | 1009.2 |
| 20260508203108 | 104 | 11 | 1.7 | 7.0 | 0.00 | 0.00 | 0.00 | 100 | 1009.2 |
| 20260508202609 | 104 | 147 | 3.5 | 7.8 | 0.00 | 0.00 | 0.00 | 100 | 1009.2 |
| 20260508202103 | 105 | 129 | 0.0 | 7.8 | 0.00 | 0.00 | 0.00 | 100 | 1009.2 |
| 20260508201603 | 104 | 153 | 2.6 | 6.1 | 0.00 | 0.00 | 0.00 | 100 | 1009.2 |
| 20260508201104 | 105 | 16 | 0.9 | 7.8 | 0.00 | 0.00 | 0.00 | 100 | 1009.3 |
| 20260508201100 | 105 | 46 | 0.0 | 7.8 | 0.00 | 0.00 | 0.00 | 100 | 1009.3 |
| 20260508200329 | 105 | 68 | 1.7 | 5.2 | 0.00 | 0.00 | 0.00 | 100 | 1009.4 |
| 20260508195557 | 104 | 163 | 0.0 | 5.2 | 0.00 | 0.00 | 0.00 | 100 | 1009.5 |
| 20260508195048 | 103 | 118 | 2.6 | 4.3 | 0.00 | 0.00 | 0.00 | 100 | 1009.6 |
| 20260508194546 | 103 | 122 | 0.0 | 4.3 | 0.00 | 0.00 | 0.00 | 100 | 1009.7 |
| 20260508194046 | 103 | 82 | 0.0 | 4.3 | 0.00 | 0.00 | 0.00 | 100 | 1009.9 |
| 20260508193543 | 103 | 22 | 0.9 | 5.2 | 0.00 | 0.00 | 0.00 | 100 | 1009.9 |
| 20260508193042 | 103 | 73 | 0.0 | 5.2 | 0.00 | 0.00 | 0.00 | 100 | 1010.0 |
| 20260508192540 | 103 | 19 | 0.0 | 5.2 | 0.00 | 0.00 | 0.00 | 100 | 1010.0 |
| 20260508192040 | 103 | 126 | 0.9 | 4.3 | 0.00 | 0.00 | 0.00 | 100 | 1010.2 |
| 20260508191535 | 103 | 82 | 1.7 | 6.1 | 0.00 | 0.00 | 0.00 | 100 | 1010.2 |
| 20260508191030 | 104 | 109 | 2.6 | 6.1 | 0.00 | 0.00 | 0.00 | 100 | 1010.2 |
| 20260508190751 | 104 | 333 | 0.0 | 4.3 | 0.00 | 0.00 | 0.00 | 100 | 1010.3 |
| 20260508190021 | 105 | 12 | 1.7 | 5.2 | 0.00 | 0.00 | 0.00 | 100 | 1010.2 |
| 20260508185514 | 104 | 30 | 0.0 | 5.2 | 0.00 | 0.00 | 0.00 | 100 | 1010.3 |
| 20260508185013 | 104 | 136 | 0.0 | 4.3 | 0.00 | 0.00 | 0.00 | 100 | 1010.4 |
| 20260508184505 | 103 | 126 | 2.6 | 5.2 | 0.00 | 0.00 | 0.00 | 100 | 1010.4 |
| 20260508184236 | 103 | 54 | 0.0 | 5.2 | 0.00 | 0.00 | 0.00 | 100 | 1010.5 |
| 20260508183503 | 104 | 132 | 0.9 | 5.2 | 0.00 | 0.00 | 0.00 | 100 | 1010.6 |
| 20260508183001 | 103 | 165 | 3.5 | 5.2 | 0.00 | 0.00 | 0.00 | 100 | 1010.7 |
| 20260508182501 | 104 | 60 | 2.6 | 7.8 | 0.00 | 0.00 | 0.00 | 100 | 1010.7 |
| 20260508182001 | 103 | 68 | 3.5 | 7.8 | 0.00 | 0.00 | 0.00 | 100 | 1010.8 |
| 20260508181458 | 103 | 8 | 1.7 | 5.2 | 0.00 | 0.00 | 0.00 | 100 | 1010.9 |
| 20260508181229 | 103 | 91 | 0.0 | 5.2 | 0.00 | 0.00 | 0.00 | 100 | 1011.0 |
| 20260508180458 | 103 | 315 | 3.5 | 5.2 | 0.00 | 0.00 | 0.00 | 100 | 1011.1 |
| 20260508175957 | 103 | 210 | 1.7 | 4.3 | 0.00 | 0.00 | 0.00 | 100 | 1011.2 |
| 20260508175456 | 103 | 144 | 3.5 | 6.1 | 0.00 | 0.00 | 0.00 | 100 | 1011.1 |
| 20260508174957 | 103 | 158 | 0.9 | 6.1 | 0.00 | 0.00 | 0.00 | 100 | 1011.2 |
| 20260508174451 | 102 | 348 | 0.0 | 4.3 | 0.00 | 0.00 | 0.00 | 100 | 1011.3 |
| 20260508173950 | 103 | 310 | 0.9 | 4.3 | 0.00 | 0.00 | 0.00 | 100 | 1011.4 |
| 20260508173449 | 103 | 119 | 3.5 | 4.3 | 0.00 | 0.00 | 0.00 | 100 | 1011.4 |
| 20260508173220 | 103 | 78 | 0.0 | 4.3 | 0.00 | 0.00 | 0.00 | 100 | 1011.5 |
| 20260508172719 | 102 | 268 | 0.9 | 4.3 | 0.00 | 0.00 | 0.00 | 100 | 1011.6 |
| 20260508171944 | 102 | 322 | 3.5 | 6.1 | 0.00 | 0.00 | 0.00 | 100 | 1011.6 |
| 20260508171443 | 102 | 302 | 4.3 | 6.1 | 0.00 | 0.00 | 0.00 | 100 | 1011.6 |
| 20260508170943 | 101 | 337 | 2.6 | 4.3 | 0.00 | 0.00 | 0.00 | 100 | 1011.8 |
| 20260508170443 | 101 | 47 | 0.0 | 2.6 | 0.00 | 0.00 | 0.00 | 100 | 1011.8 |
| 20260508165934 | 101 | 47 | 0.0 | 5.2 | 0.00 | 0.00 | 0.00 | 100 | 1011.8 |
| 20260508165432 | 100 | 21 | 2.6 | 5.2 | 0.00 | 0.00 | 0.00 | 100 | 1011.9 |
| 20260508165203 | 100 | 81 | 0.0 | 5.2 | 0.00 | 0.00 | 0.00 | 100 | 1011.9 |
| 20260508164432 | 100 | 29 | 0.0 | 0.0 | 0.00 | 0.00 | 0.00 | 100 | 1012.1 |
| 20260508163924 | 99 | 29 | 0.0 | 0.0 | 0.00 | 0.00 | 0.00 | 100 | 1012.3 |
| 20260508163422 | 99 | 29 | 0.0 | 0.0 | 0.00 | 0.00 | 0.00 | 100 | 1012.3 |
| 20260508163418 | 99 | 29 | 0.0 | 0.0 | 0.00 | 0.00 | 0.00 | 100 | 1012.3 |
| 20260508162407 | 99 | 29 | 0.0 | 0.0 | 0.00 | 0.00 | 0.00 | 100 | 1012.5 |
| 20260508161844 | 99 | 29 | 0.0 | 0.0 | 0.00 | 0.00 | 0.00 | 100 | 1012.5 |
| 20260508161840 | 98 | 29 | 0.0 | 0.0 | 0.00 | 0.00 | 0.00 | 100 | 1012.4 |
| 20260508160832 | 99 | 29 | 0.0 | 0.0 | 0.00 | 0.00 | 0.00 | 100 | 1012.5 |
| 20260508160556 | 99 | 29 | 0.0 | 0.0 | 0.00 | 0.00 | 0.00 | 100 | 1012.6 |
| 20260508160043 | 99 | 29 | 0.0 | 0.0 | 0.00 | 0.00 | 0.00 | 100 | 1012.6 |
| 20260508155538 | 98 | 29 | 0.0 | 0.0 | 0.00 | 0.00 | 0.00 | 100 | 1012.6 |
| 20260508154802 | 98 | 29 | 0.0 | 0.0 | 0.00 | 0.00 | 0.00 | 100 | 1012.8 |
| 20260508154304 | 98 | 29 | 0.0 | 0.0 | 0.00 | 0.00 | 0.00 | 100 | 1012.8 |
| 20260508154300 | 98 | 29 | 0.0 | 0.0 | 0.00 | 0.00 | 0.00 | 100 | 1012.8 |
| 20260508153518 | 98 | 29 | 0.0 | 0.0 | 0.00 | 0.00 | 0.00 | 100 | 1013.0 |
| 20260508152740 | 98 | 29 | 0.0 | 0.0 | 0.00 | 0.00 | 0.00 | 100 | 1012.9 |
| 20260508152224 | 98 | 29 | 0.0 | 0.0 | 0.00 | 0.00 | 0.00 | 100 | 1012.9 |
| 20260508151721 | 97 | 29 | 0.0 | 0.0 | 0.00 | 0.00 | 0.00 | 100 | 1012.9 |
| 20260508151441 | 97 | 29 | 0.0 | 0.0 | 0.00 | 0.00 | 0.00 | 100 | 1013.0 |
| 20260508150909 | 97 | 29 | 0.0 | 0.0 | 0.00 | 0.00 | 0.00 | 100 | 1013.0 |
| 20260508150136 | 97 | 29 | 0.0 | 0.0 | 0.00 | 0.00 | 0.00 | 100 | 1013.0 |
| 20260508145632 | 97 | 29 | 0.0 | 0.0 | 0.00 | 0.00 | 0.00 | 100 | 1013.1 |
| 20260508145120 | 97 | 29 | 0.0 | 0.0 | 0.00 | 0.00 | 0.00 | 100 | 1013.0 |
| 20260508144616 | 97 | 29 | 0.0 | 0.0 | 0.00 | 0.00 | 0.00 | 100 | 1012.9 |
| 20260508144112 | 97 | 29 | 0.0 | 0.0 | 0.00 | 0.00 | 0.00 | 100 | 1012.9 |
| 20260508143607 | 97 | 29 | 0.0 | 0.0 | 0.00 | 0.00 | 0.00 | 100 | 1013.0 |
| 20260508143104 | 96 | 29 | 0.0 | 4.3 | 0.00 | 0.00 | 0.00 | 100 | 1013.0 |
| 20260508142557 | 97 | 29 | 0.0 | 4.3 | 0.00 | 0.00 | 0.00 | 100 | 1012.9 |
| 20260508142055 | 96 | 109 | 0.0 | 3.5 | 0.00 | 0.00 | 0.00 | 100 | 1012.6 |
| 20260508141824 | 96 | 139 | 2.6 | 3.5 | 0.00 | 0.00 | 0.00 | 100 | 1012.6 |
| 20260508141052 | 96 | 82 | 0.0 | 2.6 | 0.00 | 0.00 | 0.00 | 100 | 1012.6 |
| 20260508140808 | 96 | 82 | 0.0 | 0.9 | 0.00 | 0.00 | 0.00 | 100 | 1012.8 |
| 20260508140018 | 96 | 82 | 0.0 | 3.5 | 0.00 | 0.00 | 0.00 | 100 | 1012.9 |
| 20260508135504 | 96 | 337 | 0.0 | 3.5 | 0.00 | 0.00 | 0.00 | 100 | 1012.8 |
| 20260508135233 | 96 | 337 | 0.0 | 0.0 | 0.00 | 0.00 | 0.00 | 100 | 1013.0 |
| 20260508134443 | 96 | 337 | 0.0 | 0.0 | 0.00 | 0.00 | 0.00 | 100 | 1013.1 |
| 20260508133920 | 96 | 337 | 0.0 | 0.0 | 0.00 | 0.00 | 0.00 | 100 | 1013.1 |
| 20260508133410 | 96 | 337 | 0.0 | 0.0 | 0.00 | 0.00 | 0.00 | 100 | 1013.1 |
| 20260508132902 | 96 | 337 | 0.0 | 0.0 | 0.00 | 0.00 | 0.00 | 100 | 1013.1 |
| 20260508132629 | 96 | 337 | 0.0 | 0.9 | 0.00 | 0.00 | 0.00 | 100 | 1013.1 |
| 20260508131859 | 95 | 337 | 0.0 | 3.5 | 0.00 | 0.00 | 0.00 | 100 | 1012.9 |
| 20260508131400 | 95 | 337 | 0.9 | 3.5 | 0.00 | 0.00 | 0.00 | 100 | 1012.8 |
| 20260508130844 | 95 | 43 | 0.0 | 0.0 | 0.00 | 0.00 | 0.00 | 100 | 1013.2 |
| 20260508130315 | 95 | 43 | 0.0 | 0.0 | 0.00 | 0.00 | 0.00 | 100 | 1013.4 |
| 20260508125802 | 95 | 43 | 0.0 | 0.0 | 0.00 | 0.00 | 0.00 | 100 | 1013.3 |
| 20260508125532 | 95 | 43 | 0.0 | 3.5 | 0.00 | 0.00 | 0.00 | 100 | 1013.2 |
| 20260508124758 | 95 | 43 | 0.0 | 3.5 | 0.00 | 0.00 | 0.00 | 100 | 1013.1 |
| 20260508124527 | 95 | 29 | 0.0 | 0.0 | 0.00 | 0.00 | 0.00 | 100 | 1013.3 |
| 20260508123750 | 95 | 29 | 0.0 | 0.0 | 0.00 | 0.00 | 0.00 | 100 | 1013.2 |
| 20260508123240 | 95 | 29 | 0.0 | 0.0 | 0.00 | 0.00 | 0.00 | 100 | 1013.2 |
| 20260508122734 | 95 | 29 | 0.0 | 0.0 | 0.00 | 0.00 | 0.00 | 100 | 1013.2 |
| 20260508122232 | 95 | 29 | 0.0 | 0.0 | 0.00 | 0.00 | 0.00 | 100 | 1013.2 |
| 20260508121712 | 95 | 29 | 0.0 | 1.7 | 0.00 | 0.00 | 0.00 | 100 | 1013.3 |
| 20260508121211 | 95 | 29 | 0.0 | 5.2 | 0.00 | 0.00 | 0.00 | 100 | 1013.4 |
| 20260508120659 | 94 | 47 | 0.0 | 5.2 | 0.00 | 0.00 | 0.00 | 100 | 1013.4 |
| 20260508120200 | 94 | 88 | 0.0 | 0.0 | 0.00 | 0.00 | 0.00 | 100 | 1013.6 |
| 20260508115650 | 94 | 88 | 0.0 | 4.3 | 0.00 | 0.00 | 0.00 | 100 | 1013.6 |
| 20260508115128 | 95 | 88 | 0.0 | 7.0 | 0.00 | 0.00 | 0.00 | 100 | 1013.6 |
| 20260508114604 | 94 | 77 | 2.6 | 7.0 | 0.00 | 0.00 | 0.00 | 100 | 1013.8 |
| 20260508114100 | 95 | 348 | 0.0 | 3.5 | 0.00 | 0.00 | 0.00 | 100 | 1014.0 |
| 20260508113558 | 95 | 348 | 0.0 | 4.3 | 0.00 | 0.00 | 0.00 | 100 | 1014.0 |
| 20260508113058 | 95 | 36 | 0.0 | 4.3 | 0.00 | 0.00 | 0.00 | 100 | 1013.8 |
| 20260508112552 | 94 | 334 | 0.0 | 4.3 | 0.00 | 0.00 | 0.00 | 100 | 1013.8 |
| 20260508112044 | 94 | 12 | 0.0 | 2.6 | 0.00 | 0.00 | 0.00 | 100 | 1013.8 |
| 20260508111543 | 95 | 4 | 0.9 | 2.6 | 0.00 | 0.00 | 0.00 | 100 | 1013.9 |
| 20260508111042 | 95 | 15 | 0.0 | 0.0 | 0.00 | 0.00 | 0.00 | 100 | 1013.9 |
| 20260508110542 | 94 | 15 | 0.0 | 0.0 | 0.00 | 0.00 | 0.00 | 100 | 1013.6 |
| 20260508110041 | 94 | 15 | 0.0 | 4.3 | 0.00 | 0.00 | 0.00 | 100 | 1013.4 |
| 20260508105759 | 94 | 15 | 0.0 | 5.2 | 0.00 | 0.00 | 0.00 | 100 | 1013.3 |
| 20260508105025 | 94 | 29 | 1.7 | 5.2 | 0.00 | 0.00 | 0.00 | 100 | 1013.3 |
| 20260508104519 | 94 | 16 | 0.0 | 3.5 | 0.00 | 0.00 | 0.00 | 100 | 1013.2 |
| 20260508104012 | 94 | 28 | 0.0 | 5.2 | 0.00 | 0.00 | 0.00 | 100 | 1013.2 |
| 20260508103512 | 94 | 310 | 0.0 | 7.0 | 0.00 | 0.00 | 0.00 | 100 | 1013.3 |
| 20260508103009 | 94 | 2 | 1.7 | 7.8 | 0.00 | 0.00 | 0.00 | 100 | 1013.4 |
| 20260508102504 | 94 | 45 | 2.6 | 7.8 | 0.00 | 0.00 | 0.00 | 100 | 1013.3 |
| 20260508102231 | 94 | 309 | 0.0 | 5.2 | 0.00 | 0.00 | 0.00 | 100 | 1013.4 |
| 20260508101731 | 94 | 327 | 1.7 | 5.2 | 0.00 | 0.00 | 0.00 | 100 | 1013.6 |
| 20260508100958 | 94 | 331 | 0.0 | 4.3 | 0.00 | 0.00 | 0.00 | 100 | 1013.8 |
| 20260508100445 | 94 | 358 | 3.5 | 4.3 | 0.00 | 0.00 | 0.00 | 100 | 1013.9 |
| 20260508095944 | 95 | 336 | 0.0 | 4.3 | 0.00 | 0.00 | 0.00 | 100 | 1014.0 |
| 20260508095440 | 94 | 307 | 0.0 | 4.3 | 0.00 | 0.00 | 0.00 | 100 | 1013.9 |
| 20260508094921 | 94 | 7 | 0.0 | 2.6 | 0.00 | 0.00 | 0.00 | 100 | 1013.8 |
| 20260508094412 | 94 | 35 | 0.0 | 0.0 | 0.00 | 0.00 | 0.00 | 100 | 1013.9 |
| 20260508093902 | 94 | 35 | 0.0 | 0.0 | 0.00 | 0.00 | 0.00 | 100 | 1014.0 |
| 20260508093358 | 94 | 35 | 0.0 | 0.0 | 0.00 | 0.00 | 0.00 | 100 | 1014.1 |
| 20260508092846 | 94 | 35 | 0.0 | 0.0 | 0.00 | 0.00 | 0.00 | 100 | 1014.0 |
| 20260508092332 | 94 | 35 | 0.0 | 0.0 | 0.00 | 0.00 | 0.00 | 100 | 1013.8 |
| 20260508091816 | 94 | 35 | 0.0 | 0.0 | 0.00 | 0.00 | 0.00 | 100 | 1013.6 |
| 20260508091317 | 94 | 35 | 0.0 | 0.0 | 0.00 | 0.00 | 0.00 | 100 | 1013.8 |
| 20260508090807 | 94 | 35 | 0.0 | 0.0 | 0.00 | 0.00 | 0.00 | 100 | 1013.5 |
| 20260508090244 | 95 | 35 | 0.0 | 0.0 | 0.00 | 0.00 | 0.00 | 100 | 1013.5 |
| 20260508085738 | 95 | 35 | 0.0 | 0.0 | 0.00 | 0.00 | 0.00 | 100 | 1013.5 |
| 20260508085229 | 94 | 35 | 0.0 | 3.5 | 0.00 | 0.00 | 0.00 | 100 | 1013.5 |
| 20260508084723 | 95 | 35 | 0.0 | 3.5 | 0.00 | 0.00 | 0.00 | 100 | 1013.4 |
| 20260508084219 | 94 | 74 | 0.0 | 0.0 | 0.00 | 0.00 | 0.00 | 100 | 1013.3 |
| 20260508083718 | 94 | 74 | 0.0 | 0.0 | 0.00 | 0.00 | 0.00 | 100 | 1013.4 |
| 20260508083441 | 95 | 74 | 0.0 | 0.0 | 0.00 | 0.00 | 0.00 | 100 | 1013.5 |
| 20260508082646 | 95 | 74 | 0.0 | 0.0 | 0.00 | 0.00 | 0.00 | 100 | 1013.6 |
| 20260508082126 | 95 | 74 | 0.0 | 0.0 | 0.00 | 0.00 | 0.00 | 100 | 1013.6 |
| 20260508081839 | 95 | 74 | 0.0 | 0.0 | 0.00 | 0.00 | 0.00 | 100 | 1013.8 |
| 20260508081106 | 95 | 74 | 0.0 | 0.0 | 0.00 | 0.00 | 0.00 | 100 | 1013.6 |
| 20260508080654 | 95 | 74 | 0.0 | 0.0 | 0.00 | 0.00 | 0.00 | 100 | 1013.6 |
| 20260508075545 | 94 | 74 | 0.0 | 2.6 | 0.00 | 0.00 | 0.00 | 100 | 1013.6 |
| 20260508075043 | 94 | 74 | 0.0 | 4.3 | 0.00 | 0.00 | 0.00 | 100 | 1013.5 |
| 20260508074544 | 95 | 60 | 0.0 | 4.3 | 0.00 | 0.00 | 0.00 | 100 | 1013.5 |
| 20260508074028 | 95 | 80 | 0.0 | 5.2 | 0.00 | 0.00 | 0.00 | 100 | 1013.5 |
| 20260508073517 | 95 | 97 | 2.6 | 5.2 | 0.00 | 0.00 | 0.00 | 100 | 1013.3 |
| 20260508072956 | 95 | 40 | 1.7 | 4.3 | 0.00 | 0.00 | 0.00 | 100 | 1013.2 |
| 20260508072448 | 95 | 43 | 0.0 | 5.2 | 0.00 | 0.00 | 0.00 | 100 | 1013.4 |
| 20260508071944 | 95 | 22 | 0.9 | 5.2 | 0.00 | 0.00 | 0.00 | 100 | 1013.8 |
| 20260508071444 | 94 | 57 | 0.0 | 4.3 | 0.00 | 0.00 | 0.00 | 100 | 1013.5 |
| 20260508070943 | 94 | 39 | 0.0 | 6.1 | 0.00 | 0.00 | 0.00 | 100 | 1013.4 |
| 20260508070714 | 94 | 32 | 0.0 | 6.1 | 0.00 | 0.00 | 0.00 | 100 | 1013.3 |
| 20260508070214 | 94 | 336 | 0.9 | 2.6 | 0.00 | 0.00 | 0.00 | 100 | 1013.6 |
| 20260508065444 | 94 | 123 | 0.0 | 1.7 | 0.00 | 0.00 | 0.00 | 100 | 1014.1 |
| 20260508065145 | 94 | 123 | 0.0 | 4.3 | 0.00 | 0.00 | 0.00 | 100 | 1014.3 |
| 20260508064405 | 94 | 123 | 0.9 | 4.3 | 0.00 | 0.00 | 0.00 | 100 | 1014.0 |
| 20260508063904 | 94 | 11 | 0.0 | 1.7 | 0.00 | 0.00 | 0.00 | 100 | 1014.1 |
| 20260508063345 | 94 | 11 | 0.0 | 0.0 | 0.00 | 0.00 | 0.00 | 100 | 1014.2 |
| 20260508063112 | 94 | 11 | 0.0 | 0.0 | 0.00 | 0.00 | 0.00 | 100 | 1014.3 |
| 20260508062331 | 94 | 11 | 0.0 | 0.0 | 0.00 | 0.00 | 0.00 | 100 | 1014.7 |
| 20260508061822 | 94 | 11 | 0.0 | 0.0 | 0.00 | 0.00 | 0.00 | 100 | 1014.8 |
| 20260508061323 | 94 | 11 | 0.0 | 0.0 | 0.00 | 0.00 | 0.00 | 100 | 1014.6 |
| 20260508060800 | 94 | 11 | 0.0 | 0.0 | 0.00 | 0.00 | 0.00 | 100 | 1014.5 |
| 20260508060739 | 94 | 11 | 0.0 | 0.0 | 0.00 | 0.00 | 0.00 | 100 | 1014.5 |
| 20260508055714 | 94 | 11 | 0.0 | 0.0 | 0.00 | 0.00 | 0.00 | 100 | 1014.2 |
| 20260508055203 | 94 | 11 | 0.0 | 0.0 | 0.00 | 0.00 | 0.00 | 100 | 1014.1 |
| 20260508054659 | 94 | 11 | 0.0 | 0.0 | 0.00 | 0.00 | 0.00 | 100 | 1014.2 |
| 20260508054649 | 94 | 11 | 0.0 | 0.0 | 0.00 | 0.00 | 0.00 | 100 | 1014.4 |
| 20260508053645 | 94 | 11 | 0.0 | 0.0 | 0.00 | 0.00 | 0.00 | 100 | 1014.6 |
| 20260508053140 | 95 | 11 | 0.0 | 0.0 | 0.00 | 0.00 | 0.00 | 100 | 1014.8 |
| 20260508052632 | 95 | 11 | 0.0 | 0.0 | 0.00 | 0.00 | 0.00 | 100 | 1014.7 |
| 20260508052343 | 94 | 11 | 0.0 | 0.0 | 0.00 | 0.00 | 0.00 | 100 | 1014.6 |
| 20260508051607 | 94 | 11 | 0.0 | 0.0 | 0.00 | 0.00 | 0.00 | 100 | 1014.3 |
| 20260508051102 | 94 | 11 | 0.0 | 0.0 | 0.00 | 0.00 | 0.00 | 100 | 1014.3 |
| 20260508050546 | 94 | 11 | 0.0 | 0.0 | 0.00 | 0.00 | 0.00 | 100 | 1014.2 |
| 20260508050033 | 94 | 11 | 0.0 | 0.0 | 0.00 | 0.00 | 0.00 | 100 | 1014.0 |
| 20260508045531 | 94 | 11 | 0.0 | 1.7 | 0.00 | 0.00 | 0.00 | 100 | 1014.4 |
| 20260508045014 | 94 | 11 | 0.0 | 4.3 | 0.00 | 0.00 | 0.00 | 100 | 1014.8 |
| 20260508044506 | 94 | 11 | 0.0 | 4.3 | 0.00 | 0.00 | 0.00 | 100 | 1014.9 |
| 20260508044006 | 94 | 106 | 0.0 | 2.6 | 0.00 | 0.00 | 0.00 | 100 | 1015.3 |
| 20260508043459 | 94 | 106 | 0.0 | 0.0 | 0.00 | 0.00 | 0.00 | 100 | 1014.5 |
| 20260508043224 | 94 | 106 | 0.0 | 0.0 | 0.00 | 0.00 | 0.00 | 100 | 1014.1 |
| 20260508042430 | 94 | 106 | 0.0 | 0.0 | 0.00 | 0.00 | 0.00 | 100 | 1014.1 |
| 20260508041926 | 94 | 106 | 0.0 | 0.0 | 0.00 | 0.00 | 0.00 | 100 | 1013.9 |
| 20260508041412 | 94 | 106 | 0.0 | 0.0 | 0.00 | 0.00 | 0.00 | 100 | 1014.3 |
| 20260508040908 | 94 | 106 | 0.0 | 0.0 | 0.00 | 0.00 | 0.00 | 100 | 1015.0 |
| 20260508040403 | 94 | 106 | 0.0 | 0.0 | 0.00 | 0.00 | 0.00 | 100 | 1015.0 |
| 20260508035858 | 94 | 106 | 0.0 | 0.0 | 0.00 | 0.00 | 0.00 | 100 | 1014.9 |
| 20260508035351 | 94 | 106 | 0.0 | 0.0 | 0.00 | 0.00 | 0.00 | 100 | 1014.7 |
| 20260508035346 | 94 | 106 | 0.0 | 0.0 | 0.00 | 0.00 | 0.00 | 100 | 1014.8 |